Temp
14 14 14 13 12 11 11 10 10 9 9 8 8 7 7 6 6 6 6 5 5 4 4 4 3 2 2 1 1 1 0 -0 -2 -2 -2 -3 -3 -4 -4 -3 -3 -3 -3
14 14 13 13 12 11 11 10 10 10 9 8 8 7 7 6 6 6 5 5 5 4 3 3 3 2 1 1 1 1 -0 -1 -2 -4 -4 -4 -4 -4 -4 -4 -4 -4 -4
13 13 12 12 11 11 11 10 10 9 8 8 7 7 7 6 6 6 5 4 4 3 2 2 2 1 1 1 0 -0 -1 -2 -3 -4 -5 -4 -5 -4 -5 -5 -4 -5 -4
13 12 12 12 11 11 11 10 10 9 8 8 7 7 7 6 6 5 5 4 3 3 2 2 1 1 1 0 -0 -2 -2 -3 -4 -4 -5 -6 -6 -5 -5 -5 -6 -5 -5
12 12 12 12 11 11 10 9 8 8 7 7 7 7 6 6 5 5 4 3 3 2 1 1 1 0 -0 -1 -2 -2 -3 -4 -4 -5 -6 -6 -6 -6 -6 -6 -6 -6 -6
12 12 12 11 10 10 8 7 7 7 6 6 7 6 6 6 5 4 4 3 2 2 1 1 -0 -0 -1 -1 -2 -3 -4 -5 -5 -6 -6 -7 -7 -7 -7 -7 -7 -7 -6
10 11 10 9 8 6 6 6 5 4 5 6 5 5 5 5 4 4 3 3 2 1 0 -0 -1 -1 -2 -2 -3 -3 -4 -4 -5 -6 -7 -7 -7 -7 -7 -7 -7 -7 -7
10 8 7 6 5 4 4 3 3 4 4 4 4 4 4 4 4 3 2 2 1 0 -0 -1 -1 -2 -2 -3 -3 -4 -4 -4 -5 -6 -7 -7 -7 -7 -7 -7 -6 -6 -6
4 4 4 4 4 4 4 2 3 3 3 4 4 4 4 4 4 3 2 2 1 -0 -1 -1 -2 -2 -3 -3 -4 -4 -5 -5 -6 -6 -6 -6 -7 -7 -6 -6 -6 -7 -6
4 4 4 4 4 2 1 2 2 3 3 3 3 3 2 3 3 3 2 1 0 -1 -1 -2 -2 -3 -3 -4 -4 -5 -6 -5 -6 -6 -6 -6 -6 -6 -6 -6 -7 -7 -7
4 4 4 3 1 1 2 3 3 3 2 2 2 1 2 2 2 2 2 1 0 -1 -1 -2 -2 -3 -4 -4 -5 -5 -5 -5 -6 -6 -6 -6 -7 -7 -7 -7 -7 -7 -7
3 2 1 2 2 2 2 2 3 2 2 2 1 1 1 1 2 2 1 1 0 -1 -1 -1 -2 -3 -4 -4 -5 -5 -5 -5 -6 -6 -6 -6 -7 -7 -7 -7 -7 -6 -6
2 2 2 2 2 2 2 2 2 2 2 1 1 1 1 0 0 0 -1 -1 0 -1 -1 -2 -2 -3 -4 -4 -4 -4 -5 -5 -5 -5 -6 -6 -7 -7 -7 -7 -7 -6 -6
2 2 2 2 2 2 2 1 1 1 1 1 1 1 0 0 0 -0 -0 -1 -2 -2 -2 -3 -3 -3 -4 -4 -4 -4 -4 -5 -5 -5 -6 -7 -7 -7 -7 -8 -7 -7 -7
2 2 2 1 1 1 1 1 1 1 1 0 -0 -0 -1 -1 -0 -0 -0 -1 -2 -2 -2 -3 -4 -4 -5 -5 -4 -4 -4 -5 -5 -5 -6 -7 -7 -8 -8 -8 -8 -8 -8
2 2 2 1 1 1 1 1 1 1 1 0 0 -0 -0 -1 -1 -1 -1 -2 -2 -2 -3 -4 -4 -4 -5 -5 -5 -5 -4 -5 -5 -5 -6 -7 -8 -8 -8 -8 -8 -8 -8
1 1 1 1 1 1 1 1 -0 1 1 1 1 0 -0 -0 -1 -1 -1 -1 -2 -3 -4 -5 -6 -5 -4 -5 -5 -5 -4 -4 -5 -5 -6 -7 -8 -8 -8 -8 -8 -8 -8
-0 -0 -0 -1 -1 -1 -1 -0 -0 -1 -1 -1 -0 -0 -1 -1 -1 -1 -1 -2 -3 -3 -4 -4 -5 -4 -4 -5 -5 -5 -4 -5 -5 -6 -6 -7 -7 -8 -8 -8 -8 -9 -8
-2 -2 -2 -2 -2 -2 -2 -2 -2 -2 -2 -2 -1 -1 -2 -1 -2 -2 -2 -2 -3 -3 -4 -4 -4 -4 -4 -4 -5 -4 -4 -5 -5 -5 -6 -6 -7 -8 -8 -8 -8 -8 -8
-4 -4 -3 -3 -3 -3 -3 -2 -2 -2 -2 -2 -3 -2 -3 -3 -3 -3 -2 -2 -3 -3 -4 -4 -4 -4 -4 -4 -4 -4 -4 -4 -5 -5 -5 -6 -7 -8 -8 -8 -9 -9 -8
-6 -6 -6 -5 -5 -5 -4 -3 -3 -3 -3 -2 -3 -2 -2 -3 -4 -4 -3 -3 -3 -3 -3 -4 -4 -4 -4 -4 -4 -4 -4 -4 -4 -5 -5 -6 -7 -8 -8 -8 -9 -9 -8
-8 -8 -8 -7 -7 -7 -6 -5 -5 -4 -4 -3 -3 -3 -3 -4 -4 -4 -3 -3 -3 -3 -3 -4 -4 -4 -3 -4 -4 -4 -4 -4 -4 -4 -5 -6 -6 -7 -8 -8 -9 -9 -9
-10 -10 -9 -9 -9 -9 -8 -8 -7 -7 -6 -4 -4 -4 -4 -5 -5 -4 -4 -5 -5 -4 -4 -3 -4 -4 -3 -4 -4 -4 -4 -4 -4 -4 -5 -6 -6 -7 -8 -9 -9 -9 -9
-11 -11 -12 -12 -12 -12 -11 -11 -10 -10 -9 -9 -9 -9 -9 -8 -8 -8 -8 -7 -7 -7 -6 -6 -6 -5 -4 -3 -3 -3 -4 -4 -4 -4 -4 -5 -6 -7 -8 -9 -9 -9 -9
-13 -13 -14 -14 -14 -14 -13 -14 -13 -12 -12 -12 -12 -12 -12 -11 -11 -11 -10 -10 -9 -9 -8 -8 -7 -7 -6 -6 -5 -4 -4 -4 -4 -4 -4 -5 -6 -6 -8 -8 -9 -10 -9
-14 -15 -15 -15 -16 -16 -16 -16 -15 -15 -15 -15 -15 -14 -14 -14 -14 -13 -13 -13 -12 -11 -10 -9 -8 -8 -7 -7 -6 -5 -5 -4 -4 -4 -5 -5 -6 -7 -8 -9 -9 -10 -10
Height
812 817 821 825 830 833 836 838 840 842 844 844 844 844 844 845 844 843 842 841 840 839 836 835 835 834 833 833 832 833 832 832 831 828 824 822 818 814 812 809 807 803 800
804 810 815 819 824 828 830 832 835 837 838 839 840 840 841 841 840 839 839 839 838 836 836 835 833 832 831 832 831 830 829 829 827 824 819 818 814 810 808 806 802 799 796
802 807 812 816 819 822 825 828 830 832 834 835 836 835 835 835 836 836 836 835 834 833 833 832 832 831 830 829 829 827 825 826 824 822 816 814 810 808 804 802 799 795 792
800 804 808 811 815 818 821 823 825 827 829 831 832 831 831 830 831 831 831 831 832 831 831 830 828 828 827 826 826 824 823 822 821 817 813 809 807 804 802 799 794 791 786
797 801 804 807 811 814 817 819 823 825 825 827 828 828 827 827 827 827 826 826 828 828 827 826 826 825 824 823 822 821 820 819 816 812 809 806 804 801 799 796 792 787 780
795 798 803 807 810 812 815 819 821 822 823 825 823 822 822 822 822 823 822 822 823 823 823 823 822 822 821 820 819 817 817 814 811 809 806 804 801 799 796 792 788 783 777
796 801 804 806 810 814 815 816 818 825 825 822 819 820 820 819 819 818 819 819 819 818 819 819 819 818 817 816 815 814 813 810 808 806 803 801 798 795 792 788 785 780 775
797 800 802 804 806 810 814 818 821 822 819 818 818 815 815 815 815 815 816 816 815 815 815 815 814 814 813 812 811 810 808 806 803 802 800 798 795 792 789 785 780 775 771
804 808 812 814 814 814 814 816 818 818 816 815 815 812 811 810 810 810 810 811 810 811 811 811 811 810 809 808 807 805 803 801 800 799 797 795 792 789 786 782 778 774 767
803 806 810 811 814 814 814 816 816 814 813 812 811 809 808 807 806 805 806 806 806 807 807 806 807 806 805 805 803 801 799 798 797 795 793 791 789 785 782 779 775 772 767
806 808 810 811 813 815 814 813 812 811 810 808 806 804 803 801 801 801 800 800 801 801 802 801 802 802 801 801 799 797 796 795 793 792 790 788 785 782 778 775 771 768 764
808 810 812 812 812 812 811 810 809 807 805 804 802 800 799 797 795 796 796 795 795 796 796 796 796 796 796 796 795 794 793 791 790 788 786 784 781 778 774 770 767 763 759
810 811 811 810 810 809 807 806 804 802 801 799 797 795 793 792 790 790 791 790 789 788 789 790 791 791 791 791 790 789 789 787 786 784 782 781 779 775 771 767 762 758 753
810 810 809 807 806 805 804 802 800 798 797 794 793 791 789 786 785 784 783 782 782 782 783 784 784 785 786 786 785 784 784 783 781 780 779 777 775 772 769 765 760 755 750
808 807 806 805 803 802 800 797 795 794 793 791 789 787 784 779 778 777 776 775 774 775 777 777 778 778 779 779 779 779 778 778 777 776 775 774 772 769 767 763 759 755 751
806 805 803 801 800 798 796 792 792 789 788 786 784 781 777 775 771 770 769 768 769 769 768 769 770 771 771 772 772 773 773 773 772 772 772 770 769 767 764 762 759 755 751
805 803 801 798 795 793 790 787 783 780 780 778 775 773 771 768 766 763 762 761 761 763 761 762 763 763 763 765 766 766 766 767 768 767 767 766 765 764 763 760 757 754 750
803 801 798 794 791 787 784 780 777 773 768 765 766 765 763 761 759 757 756 755 753 754 753 753 754 754 756 757 758 759 760 762 762 763 763 762 762 761 760 758 756 753 750
801 798 795 792 788 784 779 775 770 765 761 757 756 754 753 753 752 750 749 748 746 745 745 744 745 746 748 749 751 752 753 755 756 757 757 757 757 757 757 756 754 752 749
799 796 793 788 784 780 776 771 765 761 756 752 749 747 746 745 743 741 741 741 740 739 738 737 736 738 739 741 743 745 746 748 749 751 752 753 753 753 753 753 752 750 748
796 793 790 785 781 777 772 767 762 758 751 747 743 740 737 739 736 734 734 734 733 732 730 729 728 728 731 733 735 737 739 740 742 744 746 747 748 748 749 750 749 749 747
796 793 789 785 780 775 769 763 758 752 746 739 731 731 732 732 729 728 728 727 726 725 723 720 719 720 722 725 727 729 731 733 735 737 740 741 743 744 745 746 747 746 746
796 792 788 784 780 775 769 764 758 752 743 733 727 727 726 726 724 724 724 724 723 720 718 714 712 713 715 717 720 721 723 724 727 730 732 735 737 739 741 742 743 744 744
796 792 788 784 780 775 770 766 760 755 749 743 738 735 732 729 726 725 724 723 721 718 716 714 712 711 710 711 713 715 716 718 720 722 725 727 731 734 736 738 740 741 742
794 792 788 785 781 776 772 767 762 758 753 749 745 741 738 733 730 727 725 723 720 717 714 712 711 709 708 707 708 710 711 712 713 714 717 720 724 727 730 733 735 738 739
794 791 788 785 780 776 773 768 764 760 756 752 748 744 740 736 732 728 725 722 718 716 712 709 707 706 704 703 703 704 705 706 707 708 710 713 717 721 725 728 731 733 736
Wind_Speed
31 29 24 20 17 17 14 12 11 8 5 7 6 6 7 10 12 13 13 14 13 9 8 9 6 6 8 5 6 6 5 5 6 11 21 22 24 25 25 24 24 23 21
34 30 25 20 19 20 17 15 14 9 12 9 8 8 9 11 12 14 15 13 12 10 8 6 5 6 5 7 7 8 7 9 8 12 18 23 26 22 23 25 22 21 22
34 30 24 22 22 22 19 17 16 14 12 11 10 10 12 12 11 13 15 11 9 5 9 7 6 6 8 9 8 10 9 8 10 11 17 24 24 23 26 25 22 25 25
35 30 26 25 23 23 19 15 17 15 11 9 11 14 14 13 12 14 11 10 9 9 6 6 6 7 6 8 10 8 8 10 13 17 20 19 18 24 23 21 21 22 29
36 31 27 24 22 22 19 16 13 6 3 8 12 15 17 14 14 14 12 10 10 7 6 5 5 7 8 7 8 8 7 11 14 18 16 16 17 17 16 20 21 24 30
35 30 23 21 18 16 17 13 7 5 4 9 16 17 13 16 15 14 12 10 10 9 8 8 8 10 10 9 8 7 8 11 15 15 15 14 14 20 22 21 23 20 10
22 20 17 20 22 17 13 10 10 6 12 14 12 13 14 14 16 16 13 12 12 10 9 9 9 11 10 10 10 10 11 15 15 14 17 15 19 23 22 23 20 19 21
20 21 24 22 21 18 14 9 4 11 13 11 15 16 17 15 15 16 14 13 12 11 10 10 12 12 12 11 11 13 15 18 15 12 13 20 19 22 22 23 23 23 22
23 24 23 20 15 10 6 3 11 7 10 15 13 15 16 16 12 15 16 17 15 13 11 12 13 13 11 12 11 14 18 17 10 10 12 16 18 16 15 18 17 16 18
26 21 11 7 4 1 5 9 8 13 9 10 16 16 15 17 15 15 17 18 16 15 13 12 13 14 12 10 12 15 15 12 12 14 16 17 17 18 16 14 16 16 17
11 7 0 3 1 7 8 10 11 7 12 14 13 14 15 15 20 17 18 20 20 18 16 15 14 15 14 12 11 13 12 12 15 17 20 20 19 20 18 17 17 17 18
3 4 1 3 9 8 9 8 10 13 14 15 15 15 20 17 18 21 21 22 21 21 20 17 15 14 15 13 13 13 13 14 18 20 21 21 18 19 19 20 18 16 16
4 1 7 7 8 9 8 12 13 13 15 19 16 17 19 17 16 19 24 27 25 26 23 20 17 15 15 15 14 13 15 16 18 19 18 17 16 17 19 20 18 16 17
4 6 8 10 10 12 14 14 14 15 18 18 18 21 23 23 22 20 20 24 31 27 25 23 21 19 18 17 16 15 15 14 16 17 16 14 15 16 18 18 19 20 20
11 13 14 14 14 16 16 16 16 17 15 15 19 21 23 26 28 25 23 21 24 27 23 25 22 22 22 21 19 16 16 16 15 17 14 13 13 13 16 17 17 18 16
15 17 18 18 19 19 20 23 20 20 19 20 22 23 27 26 27 25 25 22 22 23 22 23 24 26 27 25 22 19 17 17 15 14 12 12 11 11 13 16 16 17 16
20 24 26 26 25 26 26 26 26 30 26 27 27 25 24 25 24 23 23 24 25 24 22 20 20 25 27 27 24 21 19 18 15 14 11 10 9 9 11 13 15 16 17
20 20 22 25 27 29 31 32 32 27 25 25 27 26 26 23 24 23 24 25 26 26 27 28 30 29 27 26 25 22 20 18 17 15 12 8 9 9 11 11 12 15 15
22 24 24 25 24 24 25 27 28 28 27 24 28 27 24 20 23 22 22 22 22 24 27 30 32 31 28 26 25 23 20 20 21 19 15 12 9 9 10 10 10 12 13
21 21 23 24 24 25 25 25 24 25 25 26 22 23 21 21 21 20 21 20 19 25 27 29 31 30 29 26 25 23 22 22 23 23 19 14 11 9 10 9 8 10 10
25 25 24 23 24 25 26 24 24 26 25 23 28 28 24 21 21 22 23 22 21 23 26 30 31 31 29 26 25 24 23 23 24 24 21 17 13 12 9 8 7 7 7
21 22 22 21 23 25 25 26 27 27 28 30 29 25 15 18 19 21 19 20 20 19 23 29 31 31 28 26 24 24 26 27 27 26 24 19 15 13 11 9 7 5 4
21 21 21 21 22 24 25 24 25 28 28 24 15 4 8 9 9 9 8 9 11 12 16 20 27 27 26 24 24 23 23 26 27 26 27 22 19 17 13 11 8 5 3
20 18 24 21 21 23 22 22 23 26 26 27 26 25 24 21 17 16 15 15 16 17 16 14 13 12 24 21 21 21 22 24 26 25 24 24 22 18 16 13 10 7 4
19 18 24 21 23 22 21 23 22 22 22 22 23 24 23 23 21 19 16 15 17 19 19 18 18 17 13 7 12 17 19 20 23 27 26 25 24 21 19 16 14 10 7
18 18 22 21 23 21 20 22 21 21 22 22 21 20 21 22 22 22 20 21 22 22 20 19 18 17 16 19 18 14 15 19 21 23 28 27 26 24 21 18 16 13 10
Wind_Direction
181 178 179 177 178 179 184 186 194 205 259 286 260 286 313 319 321 316 294 291 297 291 287 290 266 261 268 259 241 241 240 273 259 300 311 318 324 326 321 319 316 317 318
186 182 184 183 183 183 192 202 203 241 247 229 253 276 286 305 304 304 301 277 289 288 272 264 256 229 250 263 259 265 287 304 300 287 313 321 327 331 326 323 324 322 317
183 182 183 187 188 193 200 203 209 220 215 230 239 261 276 289 286 293 297 261 257 256 291 264 267 269 274 258 264 283 290 298 303 296 309 318 323 326 325 322 317 316 315
186 185 187 192 196 199 209 213 223 203 210 237 257 282 283 269 266 278 262 243 245 267 232 248 266 278 275 283 284 280 289 294 303 313 310 307 311 319 316 312 311 313 312
188 190 197 196 199 202 207 198 173 170 290 281 281 294 281 254 267 258 255 244 254 248 240 255 274 287 289 263 259 283 287 297 311 313 305 305 309 314 315 316 303 307 308
192 195 197 195 199 196 155 144 114 34 328 303 303 290 265 269 259 255 253 251 247 247 255 267 278 287 290 274 277 285 297 313 315 308 305 300 303 312 312 307 302 306 310
182 181 174 151 130 120 113 96 64 322 303 289 300 302 293 270 259 248 246 248 233 240 248 258 273 280 278 275 274 287 309 319 316 302 302 306 311 315 317 307 298 295 291
155 147 139 125 109 99 74 42 325 278 294 312 308 301 293 283 275 243 241 236 238 246 251 262 271 271 276 263 277 297 313 321 321 315 308 311 314 314 310 303 301 306 302
81 81 83 76 65 49 27 298 286 294 307 309 309 308 298 289 264 242 240 242 241 245 252 263 270 271 266 265 282 306 316 322 325 324 315 322 320 317 316 320 321 317 311
99 100 78 23 348 36 281 279 280 294 297 305 307 305 293 276 277 256 242 244 241 244 252 264 268 270 270 262 289 308 310 315 318 322 325 325 332 330 325 322 322 307 307
70 27 175 166 228 278 284 281 285 282 302 309 317 313 313 285 265 262 249 242 244 245 250 258 263 264 262 271 289 296 298 302 306 308 308 314 321 327 332 332 327 316 298
111 114 108 269 285 280 273 270 285 300 306 306 298 307 324 302 274 266 256 251 251 243 247 257 259 258 259 269 281 284 289 294 297 297 298 305 319 330 333 331 325 324 319
102 257 289 291 287 287 274 280 292 291 294 301 282 290 313 312 295 269 265 259 250 245 249 255 255 251 253 260 277 277 283 285 289 288 292 297 317 329 331 337 337 341 337
317 308 305 300 296 290 288 289 289 287 293 290 275 294 300 303 295 287 284 268 253 246 247 250 250 250 252 261 273 270 278 279 281 281 284 296 315 329 336 345 344 349 342
327 319 310 303 298 295 290 289 287 286 284 288 288 294 295 295 293 291 287 276 257 247 249 250 247 247 249 255 268 267 270 275 278 274 267 296 310 326 336 346 349 348 340
315 314 311 304 298 291 287 288 282 280 276 286 286 290 295 290 297 288 278 273 255 245 244 241 245 250 248 253 262 266 264 269 272 262 266 289 302 318 331 339 347 350 339
310 308 305 302 297 289 285 283 280 288 270 281 286 290 294 292 295 290 281 274 262 250 232 229 233 247 251 250 257 262 261 264 270 246 268 288 299 307 323 335 342 347 344
344 339 337 328 313 299 291 284 276 267 267 275 283 293 295 293 295 292 285 273 247 240 232 233 242 249 251 253 257 259 258 263 246 246 262 270 274 291 303 321 337 340 339
340 338 334 330 321 314 305 294 282 271 265 270 283 289 290 295 302 286 286 273 250 234 235 235 245 253 256 256 257 258 256 256 249 247 257 257 264 270 282 309 319 335 337
346 342 337 332 327 321 314 304 296 291 283 276 265 277 278 295 293 281 288 276 262 257 254 245 244 255 258 256 255 256 255 250 244 244 254 255 257 259 273 298 311 327 330
343 342 337 330 321 315 310 309 309 305 299 289 282 277 270 281 279 280 284 277 271 268 264 256 249 251 256 256 254 250 250 252 243 244 249 249 251 247 257 275 291 318 322
356 347 346 346 345 342 327 311 303 300 300 295 278 269 283 288 281 279 281 284 290 292 292 267 250 247 250 250 249 250 249 247 248 247 243 245 245 243 242 252 269 290 307
356 360 359 352 352 348 342 343 352 360 351 323 308 347 32 17 352 339 356 356 348 347 345 307 257 242 249 250 253 252 250 249 250 250 241 239 236 235 233 236 243 258 271
11 11 1 358 351 352 350 354 359 2 6 9 16 19 18 22 21 9 358 346 339 331 331 340 5 284 255 260 256 253 257 261 257 251 248 235 232 231 226 225 225 227 236
13 3 5 2 359 355 356 354 354 360 3 4 1 1 0 1 3 357 359 347 337 332 330 325 319 313 309 320 265 271 271 270 265 262 244 232 227 226 224 225 219 211 218
14 8 7 5 3 360 356 351 351 356 354 351 351 351 350 347 347 343 342 334 333 329 327 324 320 314 306 294 280 269 255 267 264 263 258 229 218 218 218 220 214 213 209